Temperature
14 14 14 14 14 13 13 13 13 13 13 12 12 12 12 11 11 11 11 10 10 10 10 9 9 9 9 9 9 9 8 8 8 8 9 9 9 9 9 9 9 9 9
14 14 14 13 13 13 13 13 12 12 12 12 12 11 11 11 11 11 10 10 10 9 9 9 9 8 8 8 8 8 8 8 8 8 8 8 8 8 8 8 8 8 8
13 13 13 13 13 13 12 12 12 12 12 12 11 11 11 11 10 10 10 9 9 9 9 9 8 8 8 8 7 7 7 7 7 8 8 7 8 8 8 8 8 8 8
13 13 13 13 12 12 12 12 12 12 11 11 11 11 11 10 10 10 9 9 9 9 9 8 8 8 7 7 7 7 7 7 7 7 7 7 7 7 7 7 7 8 8
13 12 12 12 12 12 12 12 11 11 11 11 11 10 10 10 9 9 9 9 8 8 8 8 8 8 7 7 7 6 6 6 6 6 6 6 7 7 7 7 7 7 7
12 12 12 12 12 12 11 11 11 11 11 10 10 10 9 9 9 9 8 8 8 8 8 7 7 7 7 7 6 6 6 6 6 6 6 6 6 6 6 6 6 7 7
12 12 12 11 11 11 11 11 11 10 10 10 10 9 9 9 8 8 8 8 8 7 7 7 7 7 7 6 6 6 6 6 5 5 5 5 5 5 6 6 6 6 6
11 11 11 11 11 11 11 10 10 10 10 9 9 8 8 8 8 8 8 7 7 7 7 7 7 6 6 6 6 6 6 5 5 5 5 5 5 5 5 5 5 5 5
11 11 11 11 10 10 10 10 10 9 9 9 8 8 8 7 7 7 7 7 7 7 7 6 6 6 6 6 5 5 5 5 4 4 4 5 4 4 4 5 5 5 5
10 10 10 10 10 10 10 9 9 9 9 9 8 8 7 7 6 6 7 7 7 7 6 6 6 5 5 5 5 5 5 4 4 4 4 4 4 4 4 4 4 4 4
10 10 10 10 10 9 9 9 9 9 8 8 8 8 7 7 6 6 6 6 7 7 6 6 5 5 5 5 5 5 4 4 4 4 4 4 4 3 3 3 3 3 3
10 10 9 9 9 9 9 8 8 8 8 8 7 7 7 7 6 6 5 5 6 6 6 5 5 5 5 5 4 4 4 4 4 4 3 3 3 3 3 3 3 3 3
9 9 9 9 9 8 8 8 8 8 8 7 7 7 6 6 6 5 5 5 5 5 5 5 5 4 4 4 4 4 4 4 4 3 3 3 3 3 3 2 2 2 2
9 9 9 9 8 8 8 8 8 7 7 7 7 6 6 6 5 5 5 4 4 4 4 4 4 4 4 4 4 4 3 3 3 3 3 2 2 2 2 2 2 2 2
8 8 8 8 8 8 7 7 7 7 7 7 6 6 6 5 5 5 4 4 3 3 3 4 3 4 3 3 3 3 3 3 2 2 2 2 2 2 2 1 1 1 1
8 8 8 8 7 7 7 7 7 7 6 6 6 5 5 5 5 4 4 4 3 2 2 3 3 3 3 3 3 3 3 2 2 2 2 2 2 2 1 1 1 1 1
7 7 7 7 7 7 7 6 6 6 6 6 5 5 5 5 4 4 4 3 3 2 2 3 3 3 3 2 2 2 2 2 2 2 2 1 1 1 1 1 1 1 0
7 7 7 7 6 6 6 6 6 6 6 5 5 5 4 4 4 4 3 3 3 2 2 2 2 2 2 2 2 2 2 1 1 2 1 1 1 1 1 0 0 0 0
6 6 6 6 6 6 6 6 5 5 5 5 4 4 4 4 3 3 3 3 2 2 2 2 2 2 2 1 1 1 1 1 1 1 1 1 1 1 0 0 -0 -0 -0
6 6 6 6 5 5 5 5 5 5 4 4 4 4 3 3 3 3 2 2 2 2 2 2 1 1 1 1 1 1 1 1 1 1 1 1 0 0 0 -0 -0 -1 -1
5 5 5 5 5 5 5 5 4 4 4 4 3 3 3 3 2 2 2 2 1 1 1 1 1 1 0 0 -0 -1 -1 -0 0 0 0 0 0 0 0 -0 -1 -1 -1
5 5 5 5 4 4 4 4 4 4 3 3 3 3 2 2 2 2 2 1 1 1 1 0 0 -0 -0 -1 -1 -1 -1 -1 -1 -1 -1 -0 -0 -0 -0 -1 -1 -1 -1
4 4 4 4 4 4 4 3 3 3 3 3 3 2 2 2 2 1 1 1 1 1 0 -0 -0 -1 -1 -1 -1 -2 -2 -2 -2 -2 -2 -1 -0 -0 -1 -1 -1 -1 -1
4 4 4 3 3 3 3 3 3 2 2 2 2 2 2 1 1 1 1 1 1 1 0 -0 -1 -1 -1 -2 -2 -2 -2 -2 -2 -2 -2 -2 -1 -1 -1 -1 -1 -1 -1
3 3 3 3 2 2 2 2 2 2 2 2 1 1 1 1 1 0 0 0 0 0 -0 -1 -1 -1 -1 -2 -2 -2 -2 -3 -2 -2 -2 -3 -2 -2 -1 -1 -1 -1 -1
2 2 2 2 2 2 2 1 1 1 1 1 1 1 1 0 0 0 -0 -0 -0 -1 -1 -1 -1 -1 -1 -2 -2 -2 -3 -3 -3 -3 -3 -3 -3 -3 -3 -1 -1 -1 -1
Wind_Speed
5 5 5 5 5 5 4 4 4 4 5 5 5 5 4 5 5 5 5 7 7 7 8 9 9 9 10 10 10 11 11 12 12 13 14 14 14 14 14 15 15 15 16
7 5 4 4 4 4 4 4 4 4 3 4 4 4 3 4 4 5 5 6 7 8 8 9 9 10 10 10 11 12 12 13 13 14 14 14 15 15 16 16 16 16 17
8 7 4 3 3 4 5 5 5 4 3 3 3 3 3 3 4 4 4 5 6 8 9 10 10 10 11 11 11 12 12 13 14 14 14 15 16 16 17 17 17 18 18
9 7 4 3 4 5 5 3 3 3 3 3 2 2 2 2 3 3 4 4 5 5 7 9 10 11 11 12 12 13 13 14 14 15 15 16 16 17 17 18 19 19 19
10 8 5 4 5 5 3 3 2 2 2 2 2 2 2 2 2 3 2 3 4 5 6 8 10 10 11 12 12 13 14 14 15 15 16 16 17 18 18 19 20 20 20
10 9 6 5 5 3 2 2 3 2 2 1 2 3 3 2 2 1 1 2 3 5 6 7 8 9 11 12 13 14 15 15 16 17 17 17 18 19 19 20 21 21 22
9 8 5 4 4 3 3 3 2 3 3 2 3 3 3 3 2 2 2 2 3 5 5 6 7 7 9 11 13 14 15 17 17 18 18 18 19 20 21 21 22 22 23
9 8 6 4 4 3 4 3 3 2 2 2 2 2 2 3 3 2 2 2 3 5 4 6 6 6 8 9 11 15 16 17 18 18 19 19 20 21 21 22 22 23 23
8 8 7 5 4 4 4 3 3 3 2 1 2 2 2 2 3 3 2 2 3 3 4 5 5 6 8 9 11 14 16 18 18 19 20 20 21 21 22 22 23 23 24
7 7 7 6 4 3 4 3 3 2 3 1 1 2 1 2 1 2 3 3 3 4 4 4 5 6 8 9 12 14 17 18 19 20 20 21 22 22 22 23 23 23 24
5 6 7 6 4 3 3 3 3 3 2 2 2 1 1 1 1 1 3 5 4 3 4 3 3 5 7 10 12 14 17 18 19 20 20 21 22 22 23 23 23 23 23
2 4 6 5 4 3 3 3 3 3 2 2 2 1 1 1 0 0 2 4 5 5 4 3 3 4 7 11 13 16 17 19 20 20 20 21 22 22 22 22 23 23 23
3 4 4 4 3 3 4 3 3 3 3 3 2 1 1 0 0 1 1 3 4 4 3 3 3 3 8 11 13 17 17 19 19 20 20 20 21 21 21 22 22 22 23
5 5 4 5 4 4 4 4 2 2 2 2 2 2 1 0 0 1 1 1 3 3 3 4 3 3 8 12 14 16 15 18 20 20 20 20 20 21 21 22 22 22 22
4 5 5 5 4 4 4 4 3 2 2 2 2 1 0 0 0 1 0 1 1 3 4 4 3 4 10 12 14 14 15 18 19 20 20 20 20 21 21 21 21 21 22
4 5 5 5 4 4 4 3 3 2 3 1 1 1 0 1 1 1 1 1 1 2 4 4 5 7 10 11 15 15 15 18 18 19 20 20 21 21 21 21 21 21 21
5 6 5 5 5 4 4 3 3 3 3 2 1 1 0 0 1 1 1 1 1 2 5 6 5 6 7 9 12 13 14 14 14 18 20 20 21 21 20 21 21 21 22
5 5 5 5 5 5 4 4 4 3 3 2 1 1 0 1 1 1 1 2 2 2 3 7 6 6 8 9 9 9 11 13 14 17 18 19 20 20 20 21 21 21 21
5 5 5 5 5 4 4 4 3 3 2 2 2 2 1 0 1 2 2 2 2 3 3 4 6 6 6 7 9 9 9 8 13 15 17 18 19 20 20 20 21 21 21
6 5 5 4 4 4 4 4 3 3 2 1 1 1 1 2 2 2 2 2 3 3 3 4 6 7 7 7 7 8 10 8 9 11 13 16 18 19 19 20 20 20 21
5 5 5 4 3 4 4 4 4 3 2 1 0 0 1 1 2 2 2 2 2 3 3 4 6 7 7 8 8 7 9 10 9 5 8 10 11 10 13 17 18 20 21
5 5 5 4 4 3 4 5 4 3 2 2 1 0 1 2 3 4 5 4 4 3 4 4 5 7 8 8 8 8 8 9 7 5 8 10 8 8 9 11 17 21 21
5 5 4 4 3 2 4 4 4 3 2 1 1 0 1 2 3 2 4 5 5 7 6 5 5 7 8 8 8 9 9 9 9 8 8 8 6 8 10 13 18 19 20
5 4 4 4 3 2 3 3 4 3 2 1 1 0 0 2 3 2 2 3 4 5 6 5 4 6 7 7 7 7 8 9 8 6 4 5 6 7 10 10 15 18 20
4 3 3 3 3 2 3 3 4 2 2 1 0 1 1 2 4 4 3 3 5 6 8 9 9 9 11 12 10 6 7 8 9 6 3 4 5 8 7 6 10 16 19
4 4 3 3 3 2 3 3 4 2 2 1 1 1 2 3 4 4 2 2 4 5 6 7 8 9 8 9 11 6 5 7 7 6 4 5 5 6 6 4 6 10 12
Wind_Direction
122 115 106 96 86 83 79 69 65 60 56 55 62 72 72 71 67 60 52 47 43 37 31 25 21 16 11 7 5 2 358 354 351 347 344 340 337 332 328 325 323 319 314
131 124 112 103 92 91 87 83 75 71 64 66 62 62 75 80 70 65 61 51 43 37 30 23 19 12 6 3 0 357 354 351 348 345 342 339 338 334 328 325 322 319 316
133 127 118 109 101 95 87 79 68 67 63 60 53 53 73 78 77 73 66 57 44 35 28 21 13 5 359 355 353 351 348 345 343 341 340 338 337 334 332 328 323 319 316
137 128 120 117 111 100 90 88 77 65 53 52 43 30 56 70 79 79 72 62 48 30 17 11 5 0 356 353 350 347 344 342 341 339 337 335 333 331 330 327 324 320 317
139 131 123 118 114 100 89 90 74 82 65 44 41 33 33 57 73 78 69 58 35 24 14 4 359 355 352 350 348 345 341 340 337 335 334 332 330 329 328 326 324 322 317
140 131 121 116 115 105 87 85 85 64 72 53 48 29 10 13 40 56 43 28 13 6 4 1 358 353 350 348 346 342 340 337 334 332 330 329 327 326 325 324 324 323 321
141 133 124 120 118 123 120 111 97 76 49 41 61 23 358 359 10 358 13 13 1 353 357 356 353 353 351 347 344 342 338 334 331 329 328 327 325 324 323 322 322 321 320
143 142 137 137 131 124 110 105 103 94 56 43 82 77 9 344 342 339 343 343 344 350 346 343 347 349 346 344 339 338 335 332 329 328 328 326 324 322 321 321 321 320 320
147 147 147 140 135 139 142 137 130 119 119 28 55 108 123 242 306 317 310 327 334 331 327 333 339 336 339 339 335 335 334 332 331 329 327 325 324 322 321 321 320 319 319
150 152 149 144 141 141 149 153 137 125 131 127 37 46 119 161 162 309 313 319 320 311 312 319 327 328 335 339 334 332 333 333 330 328 326 325 325 323 322 321 320 319 318
153 153 151 145 146 147 152 147 136 124 131 143 143 117 69 48 88 188 293 314 321 304 304 297 308 322 335 338 331 328 332 332 330 328 327 326 324 323 322 321 320 320 319
164 158 152 150 154 152 157 158 150 141 138 130 128 125 132 137 211 199 270 305 309 304 305 293 304 320 334 336 330 330 331 330 328 327 326 324 323 322 322 322 322 322 321
177 185 162 157 157 157 150 143 144 144 143 139 140 140 123 149 165 196 245 292 301 301 304 300 293 317 337 337 333 334 333 331 331 329 327 326 325 325 326 326 325 324 323
185 174 161 156 153 151 143 137 141 150 136 139 133 132 130 295 127 184 208 275 315 310 299 292 302 309 335 332 330 334 330 330 331 331 330 328 328 328 327 327 327 326 326
170 161 154 154 154 150 145 142 147 149 136 138 147 141 147 275 295 273 247 209 247 300 298 289 308 315 328 328 327 329 326 326 331 332 329 329 329 329 329 329 328 327 327
163 157 154 154 153 149 144 142 148 144 126 127 138 120 68 300 326 324 302 299 251 253 277 286 296 311 321 324 327 328 323 327 329 330 330 331 330 330 330 329 329 327 327
161 163 160 159 158 155 151 149 151 143 135 125 101 108 327 322 325 321 328 317 292 270 279 295 301 315 318 321 325 325 325 323 324 328 330 330 329 330 330 330 330 329 328
162 159 155 156 162 160 157 158 163 157 156 159 162 148 268 339 334 320 311 297 292 282 279 299 312 319 316 317 321 323 327 327 323 325 329 329 329 330 331 331 331 331 330
151 146 149 157 163 163 160 165 166 164 170 179 180 186 228 270 304 302 297 294 295 307 300 299 311 315 314 319 326 325 324 322 325 326 328 329 329 330 331 332 332 332 332
148 148 150 154 156 155 153 155 151 147 155 175 185 197 227 240 252 269 288 295 304 311 316 315 316 319 317 320 327 329 329 330 325 324 328 328 327 329 330 331 332 333 333
144 143 140 141 142 148 153 150 151 144 147 151 154 250 268 299 310 309 318 312 317 319 321 321 319 322 324 330 330 325 324 324 320 313 325 321 320 320 325 328 331 333 334
135 134 140 145 148 158 159 152 140 145 155 159 158 327 314 324 329 334 333 334 334 324 315 312 313 315 314 318 320 323 324 327 323 321 324 315 314 315 319 324 328 332 335
133 134 141 144 149 157 160 157 142 138 151 161 164 178 338 335 340 315 328 342 337 333 326 310 299 302 306 311 317 321 321 318 307 308 317 305 309 314 317 322 326 332 337
138 140 145 145 146 165 157 146 130 119 125 113 142 175 273 308 318 336 345 340 326 323 321 315 296 299 307 310 308 308 307 311 302 298 297 295 307 314 316 315 321 331 337
132 139 148 142 145 162 142 127 112 123 116 84 31 26 355 306 328 351 355 332 329 327 333 329 323 324 326 329 331 330 329 328 321 316 315 308 310 316 309 303 316 329 335
137 136 133 134 142 152 132 116 104 125 122 83 21 353 341 339 340 351 347 327 324 322 329 333 335 335 334 331 335 332 317 319 319 313 317 324 313 327 319 302 311 324 331
Height
1539 1539 1540 1541 1541 1541 1541 1541 1541 1540 1540 1540 1539 1539 1538 1538 1537 1537 1536 1535 1534 1533 1531 1530 1528 1526 1525 1523 1521 1519 1516 1514 1512 1510 1508 1506 1504 1502 1500 1499 1497 1495 1493
1537 1538 1539 1539 1540 1540 1540 1540 1540 1540 1539 1539 1538 1538 1538 1537 1537 1536 1535 1534 1533 1532 1530 1529 1527 1525 1523 1521 1519 1517 1514 1512 1510 1507 1505 1503 1501 1499 1497 1495 1493 1491 1489
1536 1537 1537 1538 1538 1539 1539 1539 1539 1539 1538 1538 1537 1537 1537 1536 1536 1535 1534 1533 1532 1531 1529 1527 1525 1523 1521 1519 1517 1514 1512 1510 1507 1505 1502 1500 1498 1495 1493 1491 1489 1486 1484
1534 1535 1536 1536 1537 1537 1537 1537 1537 1537 1537 1536 1536 1536 1535 1535 1535 1534 1533 1532 1531 1529 1528 1526 1524 1521 1519 1517 1514 1512 1510 1507 1505 1502 1500 1497 1495 1492 1490 1487 1484 1482 1479
1532 1533 1534 1535 1535 1536 1536 1536 1536 1536 1535 1535 1535 1535 1534 1534 1534 1533 1532 1531 1530 1528 1526 1524 1522 1520 1517 1515 1512 1510 1507 1505 1502 1500 1497 1494 1492 1489 1486 1483 1480 1477 1475
1531 1532 1532 1533 1534 1534 1534 1534 1535 1534 1534 1534 1533 1533 1533 1533 1532 1532 1531 1530 1528 1526 1524 1522 1520 1518 1515 1512 1510 1507 1505 1502 1500 1497 1494 1491 1488 1485 1482 1479 1476 1472 1469
1528 1530 1530 1531 1532 1532 1533 1533 1533 1533 1532 1532 1531 1531 1531 1531 1531 1530 1529 1528 1526 1525 1523 1520 1518 1515 1513 1510 1507 1504 1502 1499 1496 1494 1491 1488 1484 1481 1478 1475 1471 1468 1464
1526 1528 1529 1529 1530 1531 1531 1531 1531 1531 1531 1530 1530 1529 1529 1530 1529 1528 1527 1526 1524 1523 1521 1518 1516 1513 1510 1508 1505 1502 1499 1496 1493 1490 1487 1484 1480 1477 1473 1470 1466 1463 1459
1524 1526 1527 1527 1528 1529 1529 1529 1529 1529 1529 1529 1529 1529 1528 1527 1526 1525 1524 1523 1522 1520 1518 1516 1513 1511 1508 1505 1502 1498 1495 1492 1489 1486 1483 1479 1476 1472 1469 1465 1461 1458 1454
1522 1523 1525 1525 1526 1527 1527 1527 1528 1528 1528 1527 1528 1528 1528 1526 1525 1523 1522 1521 1520 1518 1516 1514 1511 1508 1505 1502 1499 1496 1492 1489 1485 1482 1478 1475 1471 1467 1464 1460 1456 1452 1448
1519 1521 1522 1523 1524 1525 1525 1526 1526 1526 1526 1526 1526 1526 1525 1525 1523 1522 1519 1517 1516 1515 1513 1511 1508 1506 1502 1499 1496 1492 1488 1485 1481 1477 1474 1470 1466 1462 1459 1455 1451 1447 1443
1516 1518 1520 1521 1522 1523 1523 1524 1524 1524 1524 1524 1524 1524 1523 1522 1521 1520 1517 1515 1513 1512 1510 1508 1506 1503 1499 1496 1492 1489 1485 1481 1477 1473 1469 1466 1462 1458 1454 1449 1445 1441 1437
1513 1515 1517 1518 1519 1520 1521 1522 1522 1522 1522 1522 1522 1522 1521 1521 1520 1518 1516 1513 1510 1508 1507 1505 1503 1500 1497 1493 1489 1485 1481 1477 1473 1469 1465 1461 1457 1453 1449 1445 1440 1436 1432
1510 1512 1514 1516 1517 1518 1519 1519 1520 1520 1520 1520 1520 1520 1519 1518 1517 1516 1514 1512 1508 1505 1504 1502 1500 1497 1494 1490 1486 1482 1478 1474 1469 1465 1461 1457 1453 1449 1444 1440 1436 1431 1427
1508 1510 1511 1513 1514 1515 1516 1517 1517 1518 1518 1518 1517 1517 1517 1516 1515 1514 1512 1511 1509 1504 1500 1498 1497 1494 1491 1487 1483 1479 1475 1470 1466 1462 1458 1454 1449 1444 1440 1436 1431 1427 1422
1504 1506 1508 1510 1511 1512 1514 1515 1515 1515 1515 1515 1515 1515 1514 1513 1512 1511 1510 1508 1507 1504 1500 1496 1494 1492 1488 1484 1481 1476 1472 1468 1463 1459 1454 1450 1445 1441 1436 1432 1427 1423 1418
1501 1503 1505 1507 1508 1509 1511 1512 1513 1513 1513 1513 1513 1512 1512 1511 1510 1509 1507 1506 1504 1502 1498 1494 1492 1489 1485 1481 1477 1473 1469 1464 1460 1455 1451 1446 1442 1437 1432 1428 1423 1418 1413
1498 1500 1502 1504 1505 1506 1508 1509 1510 1510 1510 1510 1510 1510 1509 1508 1507 1506 1504 1503 1501 1499 1496 1491 1488 1485 1482 1478 1474 1470 1466 1462 1457 1452 1447 1443 1438 1434 1429 1424 1419 1414 1409
1495 1497 1499 1501 1502 1504 1505 1506 1507 1507 1508 1507 1507 1507 1506 1506 1504 1503 1502 1500 1498 1496 1493 1489 1485 1482 1478 1475 1470 1466 1463 1458 1454 1449 1444 1440 1435 1430 1425 1420 1415 1410 1405
1493 1495 1497 1498 1500 1501 1503 1504 1504 1505 1505 1505 1505 1504 1504 1503 1502 1501 1499 1497 1495 1493 1490 1487 1482 1479 1475 1472 1468 1462 1457 1454 1450 1446 1441 1437 1432 1427 1422 1417 1412 1407 1402
1490 1492 1494 1496 1497 1499 1500 1501 1502 1502 1502 1502 1502 1502 1501 1500 1499 1498 1496 1494 1492 1489 1487 1483 1480 1476 1472 1468 1464 1460 1455 1450 1446 1442 1437 1433 1429 1424 1419 1414 1409 1403 1399
1488 1490 1492 1493 1495 1496 1497 1498 1499 1500 1500 1500 1499 1499 1498 1498 1497 1495 1494 1491 1490 1487 1483 1480 1477 1473 1470 1467 1463 1459 1454 1448 1442 1440 1434 1430 1426 1420 1416 1411 1406 1401 1396
1486 1488 1490 1491 1493 1494 1495 1496 1496 1497 1497 1497 1497 1496 1496 1495 1494 1492 1490 1489 1487 1485 1482 1479 1475 1472 1468 1464 1461 1456 1452 1448 1443 1438 1432 1426 1423 1417 1413 1409 1404 1399 1394
1484 1486 1487 1489 1490 1491 1492 1493 1494 1495 1495 1495 1494 1494 1493 1492 1491 1489 1487 1485 1483 1481 1479 1476 1473 1470 1466 1463 1459 1455 1451 1446 1441 1437 1431 1424 1419 1414 1410 1406 1401 1397 1392
1482 1484 1485 1487 1488 1489 1490 1491 1492 1492 1492 1492 1492 1492 1491 1490 1488 1487 1485 1482 1480 1478 1476 1474 1471 1468 1464 1461 1457 1453 1448 1443 1437 1433 1429 1424 1417 1411 1406 1403 1399 1395 1390
1479 1481 1483 1484 1486 1487 1488 1489 1489 1489 1490 1490 1490 1489 1488 1487 1486 1484 1482 1480 1477 1475 1473 1470 1468 1465 1461 1458 1454 1451 1446 1441 1436 1431 1427 1423 1417 1412 1404 1400 1397 1393 1388